Regional Weather Roundup
Issued by NWS

Home | Current Version | Previous Version | Text Only | Print | Product List | Glossary Off
Versions: 1 2 3 4 5 6 7 8 9 10 11 12 13 14 15 16 17 18 19 20 21 22 23 24 25 26 27 28 29 30 31 32 33 34 35 36 37 38 39 40 41 42 43 44 45 46 47 48 49 50

000
ASUS45 KSLC 060310
RWRUT

UTAH REGIONAL WEATHER ROUNDUP
NATIONAL WEATHER SERVICE SALT LAKE CITY UT
900 PM MDT SUN JUL 05 2015

UTZ001>011-023>025-060400-

NORTHERN UTAH

CITY           SKY/WX    TMP DP  RH WIND       PRES   REMARKS
BRIGHAM CITY   CLEAR     71  61  68 NW3       30.01S
HILL AFB       PTCLDY    79  58  49 NW3       30.03S
LOGAN          CLEAR     69  58  67 S12       30.02S
OGDEN          CLEAR     78  58  49 NW5       30.00S
PROVO AIRPORT  PTCLDY    82  55  39 NW8       30.00R
SALT LAKE CITY PTCLDY    83  59  44 N10       29.98R
VERNAL         MOCLDY    72  55  55 NE6       30.08R
WENDOVER       CLEAR     81  54  39 N15       30.01R
HEBER CITY     PTCLDY    75  50  41 N8        30.08R
WEST JORDAN    CLEAR     81  55  41 N8        30.03R

$$

UTZ012>022-026-027-060400-

SOUTHERN/CENTRAL UTAH

CITY           SKY/WX    TMP DP  RH WIND       PRES   REMARKS
BLANDING       CLOUDY    61  57  88 N14       30.25R
BRYCE CANYON   MOCLDY    66  44  45 W9        30.28R
CEDAR CITY     MOCLDY    75  44  33 S10       30.12S
DELTA          PTCLDY    86  39  18 N13G22    29.99R
HANKSVILLE       N/A     73  57  56 SE9       30.01
MILFORD        MOCLDY    79  46  31 S16       30.03R
MOAB/CYNLANDS  CLEAR     77  56  48 E10       29.99R
PRICE          CLEAR     81  42  25 NW7       30.08R
ST GEORGE      PTCLDY    88  46  23 SE15      29.93S
KANAB          PTCLDY    75  48  38 S8        30.15S

$$

REGIONAL REPORTS     COLORADO/ARIZONA

CITY           SKY/WX    TMP DP  RH WIND       PRES   REMARKS
CRAIG, CO      MOCLDY    60  57  89 SE6       30.18F
GRAND JUNCTION PTCLDY    66  62  87 E12       30.07R
RIFLE          MOCLDY    65  60  84 E5        30.14R
MONTROSE       CLOUDY    66  57  72 S10       30.16F
CORTEZ         CLEAR     72  51  47 NW3       30.12R
PAGE, AZ       MOCLDY    86  44  23 W8        30.00R
GRAND CANYON   MOCLDY    63  55  75 W6        30.28R
KINGMAN        CLOUDY    82  57  42 E21G30    30.02R
FLAGSTAFF      MOCLDY    63  54  72 W3        30.29S

$$

REGIONAL REPORTS    NEVADA/IDAHO/WYOMING

CITY           SKY/WX    TMP DP  RH WIND       PRES   REMARKS
LAS VEGAS, NV  CLOUDY    91  49  23 S8        29.83S
ELY            PTCLDY    79  33  19 N12       30.14R
ELKO           CLEAR     79  40  24 W13       30.08R
POCATELLO, ID  MOCLDY    75  53  46 SW12      30.03R
BURLEY         MOCLDY    71  54  54 SW9       30.01R
EVANSTON, WY   PTCLDY    64  57  78 N8        30.22R
ROCK SPRINGS   CLEAR     63  57  81 CALM      30.19R
KEMMERER       CLEAR     61  50  67 NW5       30.22S

$$


USA.gov is the U.S. government's official web portal to all federal, state and local government web resources and services.